Fresno, CA

4:03 AM PDT on June 25, 2018 (GMT -0700)
Fresno Yosemite International

Weather History for KFAT - October, 2017

Change the Weather History Date:

Tuesday, October 10, 2017

  Actual Average Record
Temperature  
Mean Temperature 69 °F 69 °F  
Max Temperature 85 °F 82 °F 99 °F (1991)
Min Temperature 53 °F 55 °F 42 °F (1890)
Degree Days  
Heating Degree Days 0    
Month to date heating degree days 6  
Since 1 July heating degree days 10  
Cooling Degree Days 4    
Month to date cooling degree days 23  
Year to date cooling degree days 2437  
Growing Degree Days 18 (Base 50)    
Moisture  
Dew Point 33 °F    
Average Humidity 33    
Maximum Humidity 55    
Minimum Humidity 10    
Precipitation  
Precipitation 0.00 in 0.01 in 0.76 in (2000)
Month to date precipitation 0.00 0.12  
Year to date precipitation 12.80 8.15  
Snow  
Snow 0.00 in - - ()
Month to date snowfall 0.0  
Since 1 July snowfall 0.0  
Since 1 September snowfall 0.0  
Snow Depth 0.00 in    
Sea Level Pressure  
Sea Level Pressure 29.91 in    
Wind  
Wind Speed 3 mph (ESE)    
Max Wind Speed 7 mph    
Max Gust Speed 9 mph    
Visibility 9 miles    
Events      
T = Trace of Precipitation, MM = Missing Value Source: NWS Daily Summary

Daily Weather History Graph

Daily Weather History Graph

Search for Another Location

Airport or City:

Astronomy

Oct. 10, 2017 Rise Set
Actual Time 7:02 AM PDT 6:28 PM PDT
Civil Twilight 6:36 AM PDT 6:54 PM PDT
Nautical Twilight 6:06 AM PDT 7:24 PM PDT
Astronomical Twilight 5:36 AM PDT 7:54 PM PDT
Moon 10:43 PM PDT (10/10) 12:17 PM PDT (10/10)
Length of Visible Light 12h 18m
Length of Day
11h 26m
Waning Gibbous, 70% of the Moon is Illuminated
Oct 10
Waning Gibbous
Oct 12
Last Quarter
Oct 19
New
Oct 27
First Quarter
Nov 3
Full

Hourly Weather History & Observations

Time (PDT) Temp. Dew Point Humidity Pressure Visibility Wind Dir Wind Speed Gust Speed Precip Events Conditions
12:53 AM 61.0 °F 37.0 °F 41% 29.95 in 10.0 mi Calm Calm - N/A   Clear
1:53 AM 60.1 °F 37.9 °F 44% 29.96 in 10.0 mi Calm Calm - N/A   Clear
2:53 AM 57.0 °F 41.0 °F 55% 29.95 in 10.0 mi NNE 3.5 mph - N/A   Clear
3:53 AM 55.9 °F 39.9 °F 55% 29.94 in 10.0 mi ENE 4.6 mph - N/A   Clear
4:53 AM 57.0 °F 36.0 °F 45% 29.94 in 10.0 mi ENE 3.5 mph - N/A   Clear
5:53 AM 55.0 °F 36.0 °F 49% 29.95 in 10.0 mi Calm Calm - N/A   Clear
6:53 AM 55.0 °F 37.0 °F 51% 29.96 in 10.0 mi Calm Calm - N/A   Partly Cloudy
7:53 AM 55.9 °F 37.9 °F 51% 29.97 in 9.0 mi ESE 3.5 mph - N/A   Clear
8:53 AM 61.0 °F 39.9 °F 46% 29.98 in 7.0 mi ESE 3.5 mph - N/A   Clear
9:53 AM 66.0 °F 39.0 °F 37% 29.97 in 7.0 mi SSE 4.6 mph - N/A   Clear
10:53 AM 71.1 °F 37.9 °F 30% 29.96 in 8.0 mi ESE 4.6 mph - N/A   Clear
11:53 AM 75.9 °F 34.0 °F 22% 29.95 in 8.0 mi ESE 3.5 mph - N/A   Clear
12:53 PM 79.0 °F 30.0 °F 17% 29.93 in 8.0 mi SE 4.6 mph - N/A   Clear
1:53 PM 81.0 °F 27.0 °F 14% 29.89 in 9.0 mi SSW 5.8 mph - N/A   Clear
2:53 PM 84.0 °F 21.9 °F 10% 29.87 in 9.0 mi WSW 4.6 mph - N/A   Mostly Cloudy
3:53 PM 82.9 °F 21.0 °F 10% 29.86 in 9.0 mi South 4.6 mph - N/A   Mostly Cloudy
4:53 PM 82.9 °F 19.9 °F 10% 29.84 in 10.0 mi South 3.5 mph - N/A   Mostly Cloudy
5:53 PM 82.0 °F 23.0 °F 11% 29.83 in 10.0 mi Calm Calm - N/A   Mostly Cloudy
6:53 PM 77.0 °F 26.1 °F 15% 29.83 in 10.0 mi East 3.5 mph - N/A   Mostly Cloudy
7:53 PM 73.9 °F 30.9 °F 21% 29.84 in 10.0 mi Calm Calm - N/A   Mostly Cloudy
8:53 PM 72.0 °F 33.1 °F 24% 29.84 in 10.0 mi Calm Calm - N/A   Mostly Cloudy
9:53 PM 70.0 °F 35.1 °F 28% 29.85 in 9.0 mi Calm Calm - N/A   Mostly Cloudy
10:53 PM 66.0 °F 36.0 °F 33% 29.85 in 10.0 mi North 3.5 mph - N/A   Mostly Cloudy
11:53 PM 63.0 °F 37.0 °F 38% 29.86 in 10.0 mi NW 3.5 mph - N/A   Partly Cloudy